Watford City, ND

1:50 AM CST on December 10, 2019 (GMT -0600)
Watford City

Weather History for KS25 - October, 2019

Change the Weather History Date:

Thursday, October 24, 2019

  Actual Average (WUND) Record (WUND)
Temperature  
Mean Temperature 36 °F -  
Max Temperature 44 °F - - (-1)
Min Temperature 28 °F - - (-1)
Degree Days  
Heating Degree Days 29    
Moisture  
Dew Point 30 °F    
Average Humidity 80    
Maximum Humidity 100    
Minimum Humidity 42    
Precipitation  
Precipitation 0.00 in - - ()
Sea Level Pressure  
Sea Level Pressure 30.21 in    
Wind  
Wind Speed 9 mph (WSW)    
Max Wind Speed 15 mph    
Max Gust Speed 18 mph    
Visibility 10 miles    
Events      
Averages and records for this station are not official NWS values.
T = Trace of Precipitation, MM = Missing Value Source: NWS Daily Summary

Daily Weather History Graph

Daily Weather History Graph

Search for Another Location

Airport or City:

Astronomy

Oct. 24, 2019 Rise Set
Actual Time 8:25 AM CDT 6:48 PM CDT
Civil Twilight 7:53 AM CDT 7:20 PM CDT
Nautical Twilight 7:17 AM CDT 7:56 PM CDT
Astronomical Twilight 6:41 AM CDT 8:32 PM CDT
Moon 3:31 AM CDT (10/24) 5:40 PM CDT (10/24)
Length of Visible Light 11h 26m
Length of Day
10h 23m
Waning Crescent, 16% of the Moon is Illuminated
Oct 24
Waning Crescent
Oct 27
New
Nov 4
First Quarter
Nov 12
Full
Nov 19
Last Quarter

Hourly Weather History & Observations

Time (CDT) Temp. Windchill Dew Point Humidity Pressure Visibility Wind Dir Wind Speed Gust Speed Precip Events Conditions
12:15 AM 35.6 °F 30.7 °F 33.8 °F 93% 30.27 in 10.0 mi West 5.8 mph - N/A   Overcast
12:35 AM 35.6 °F 30.7 °F 33.8 °F 93% 30.27 in 10.0 mi WSW 5.8 mph - N/A   Overcast
12:55 AM 35.6 °F 29.2 °F 33.8 °F 93% 30.27 in 10.0 mi West 8.1 mph - N/A   Overcast
1:15 AM 35.6 °F 29.2 °F 35.6 °F 100% 30.27 in 10.0 mi West 8.1 mph - N/A   Overcast
1:35 AM 37.4 °F 31.4 °F 35.6 °F 93% 30.27 in 10.0 mi West 8.1 mph - N/A   Overcast
1:55 AM 37.4 °F 31.4 °F 35.6 °F 93% 30.27 in 10.0 mi West 8.1 mph - N/A   Overcast
2:15 AM 37.4 °F 31.4 °F 35.6 °F 93% 30.27 in 10.0 mi West 8.1 mph - N/A   Overcast
2:35 AM 37.4 °F 31.4 °F 35.6 °F 93% 30.26 in 10.0 mi West 8.1 mph - N/A   Overcast
2:55 AM 37.4 °F 30.3 °F 35.6 °F 93% 30.26 in 10.0 mi West 10.4 mph - N/A   Overcast
3:15 AM 37.4 °F 30.3 °F 35.6 °F 93% 30.26 in 10.0 mi West 10.4 mph - N/A   Overcast
3:35 AM 35.6 °F 28.0 °F 35.6 °F 100% 30.26 in 10.0 mi West 10.4 mph - N/A   Overcast
3:55 AM 35.6 °F 28.0 °F 35.6 °F 100% 30.26 in 10.0 mi West 10.4 mph - N/A   Overcast
4:15 AM 35.6 °F 27.5 °F 35.6 °F 100% 30.26 in 10.0 mi West 11.5 mph - N/A   Overcast
4:35 AM 35.6 °F 27.5 °F 33.8 °F 93% 30.26 in 10.0 mi West 11.5 mph - N/A   Overcast
4:55 AM 35.6 °F 27.5 °F 33.8 °F 93% 30.26 in 10.0 mi West 11.5 mph - N/A   Overcast
5:15 AM 35.6 °F 28.6 °F 33.8 °F 93% 30.26 in 10.0 mi West 9.2 mph - N/A   Overcast
5:35 AM 35.6 °F 28.0 °F 33.8 °F 93% 30.27 in 10.0 mi West 10.4 mph - N/A   Overcast
5:55 AM 35.6 °F 28.0 °F 33.8 °F 93% 30.27 in 10.0 mi West 10.4 mph - N/A   Overcast
6:15 AM 35.6 °F 28.6 °F 33.8 °F 93% 30.27 in 10.0 mi West 9.2 mph - N/A   Overcast
6:35 AM 33.8 °F 28.6 °F 33.8 °F 100% 30.27 in 10.0 mi WSW 5.8 mph - N/A   Mostly Cloudy
6:55 AM 32.0 °F 25.6 °F 30.2 °F 93% 30.27 in 10.0 mi SW 6.9 mph - N/A   Partly Cloudy
7:15 AM 30.2 °F 23.4 °F 30.2 °F 100% 30.27 in 10.0 mi WSW 6.9 mph - N/A   Clear
7:35 AM 28.4 °F 20.4 °F 28.4 °F 100% 30.28 in 10.0 mi WSW 8.1 mph - N/A   Clear
7:55 AM 28.4 °F 20.4 °F 28.4 °F 100% 30.28 in 10.0 mi SW 8.1 mph - N/A   Mostly Cloudy
8:15 AM 30.2 °F 23.4 °F 30.2 °F 100% 30.28 in 10.0 mi WSW 6.9 mph - N/A   Overcast
8:35 AM - - - N/A% 30.27 in 10.0 mi SW 8.1 mph - N/A   Unknown
8:55 AM 32.0 °F 24.8 °F 32.0 °F 100% 30.27 in 10.0 mi SW 8.1 mph - N/A   Scattered Clouds
9:15 AM 32.0 °F 24.8 °F 32.0 °F 100% 30.27 in 10.0 mi SW 8.1 mph - N/A   Partly Cloudy
9:35 AM 32.0 °F 24.8 °F 32.0 °F 100% 30.27 in 10.0 mi SW 8.1 mph - N/A   Partly Cloudy
9:55 AM 35.6 °F 29.9 °F 35.6 °F 100% 30.27 in 10.0 mi WSW 6.9 mph - N/A   Partly Cloudy
10:15 AM 35.6 °F 28.0 °F 35.6 °F 100% 30.27 in 10.0 mi SW 10.4 mph - N/A   Clear
10:35 AM 37.4 °F 28.9 °F 33.8 °F 87% 30.27 in 10.0 mi WSW 13.8 mph - N/A   Scattered Clouds
10:55 AM 37.4 °F 30.3 °F 33.8 °F 87% 30.27 in 10.0 mi WSW 10.4 mph - N/A   Mostly Cloudy
11:15 AM 39.2 °F 32.5 °F 33.8 °F 81% 30.27 in 10.0 mi WSW 10.4 mph - N/A   Mostly Cloudy
11:35 AM 39.2 °F 31.6 °F 32.0 °F 75% 30.26 in 10.0 mi West 12.7 mph - N/A   Mostly Cloudy
11:55 AM 41.0 °F 33.1 °F 32.0 °F 70% 30.25 in 10.0 mi WSW 15.0 mph - N/A   Mostly Cloudy
12:15 PM 41.0 °F 33.5 °F 32.0 °F 70% 30.25 in 10.0 mi WSW 13.8 mph - N/A   Mostly Cloudy
12:35 PM 39.2 °F 31.6 °F 32.0 °F 75% 30.24 in 10.0 mi WSW 12.7 mph - N/A   Overcast
12:55 PM 39.2 °F 31.6 °F 32.0 °F 75% 30.24 in 10.0 mi WSW 12.7 mph - N/A   Overcast
1:15 PM 41.0 °F 33.9 °F 32.0 °F 70% 30.24 in 10.0 mi West 12.7 mph - N/A   Overcast
1:35 PM 41.0 °F 33.9 °F 30.2 °F 65% 30.22 in 10.0 mi West 12.7 mph 18.4 mph N/A   Overcast
1:55 PM 41.0 °F 34.7 °F 30.2 °F 65% 30.22 in 10.0 mi WSW 10.4 mph 17.3 mph N/A   Overcast
2:15 PM 41.0 °F 33.9 °F 30.2 °F 65% 30.21 in 10.0 mi WSW 12.7 mph - N/A   Overcast
2:35 PM 41.0 °F 34.3 °F 30.2 °F 65% 30.20 in 10.0 mi WSW 11.5 mph - N/A   Overcast
2:55 PM 41.0 °F 34.7 °F 30.2 °F 65% 30.19 in 10.0 mi WSW 10.4 mph - N/A   Overcast
3:15 PM 42.8 °F 36.6 °F 32.0 °F 66% 30.18 in 10.0 mi WSW 11.5 mph - N/A   Overcast
3:35 PM 42.8 °F 36.6 °F 30.2 °F 61% 30.17 in 10.0 mi WSW 11.5 mph - N/A   Overcast
3:55 PM 44.6 °F 38.4 °F 28.4 °F 53% 30.16 in 10.0 mi SW 12.7 mph - N/A   Mostly Cloudy
4:15 PM 44.6 °F 38.8 °F 28.4 °F 53% 30.16 in 9.0 mi West 11.5 mph - N/A   Partly Cloudy
4:35 PM 44.6 °F 38.4 °F 24.8 °F 46% 30.15 in 10.0 mi WSW 12.7 mph - N/A   Clear
4:55 PM 44.6 °F 38.8 °F 24.8 °F 46% 30.14 in 10.0 mi WSW 11.5 mph - N/A   Clear
5:15 PM 44.6 °F 38.8 °F 23.0 °F 43% 30.15 in 8.0 mi West 11.5 mph - N/A   Clear
5:35 PM 44.6 °F 39.2 °F 23.0 °F 43% 30.14 in 10.0 mi West 10.4 mph - N/A   Clear
6:15 PM 42.8 °F 38.0 °F 21.2 °F 42% 30.14 in 10.0 mi WSW 8.1 mph - N/A   Clear
6:35 PM 39.2 °F 35.9 °F 21.2 °F 49% 30.14 in 10.0 mi SW 4.6 mph - N/A   Clear
6:55 PM 37.4 °F 32.8 °F 21.2 °F 52% 30.13 in 10.0 mi SSW 5.8 mph - N/A   Clear
7:15 PM 33.8 °F 29.6 °F 21.2 °F 60% 30.13 in 9.0 mi South 4.6 mph - N/A   Clear
7:35 PM 33.8 °F 29.6 °F 21.2 °F 60% 30.14 in 9.0 mi South 4.6 mph - N/A   Clear
7:55 PM 32.0 °F - 21.2 °F 64% 30.13 in 9.0 mi Calm Calm - N/A   Clear
8:15 PM 32.0 °F 24.8 °F 21.2 °F 64% 30.12 in 10.0 mi South 8.1 mph - N/A   Clear
8:35 PM 33.8 °F 27.0 °F 23.0 °F 65% 30.12 in 10.0 mi South 8.1 mph - N/A   Clear
8:55 PM 30.2 °F 24.3 °F 23.0 °F 75% 30.11 in 10.0 mi SSW 5.8 mph - N/A   Clear
9:15 PM 30.2 °F - 23.0 °F 75% 30.10 in 10.0 mi Calm Calm - N/A   Clear
9:35 PM 30.2 °F 24.3 °F 23.0 °F 75% 30.09 in 10.0 mi SW 5.8 mph - N/A   Clear
9:55 PM 30.2 °F 24.3 °F 24.8 °F 80% 30.09 in 10.0 mi SW 5.8 mph - N/A   Clear
10:15 PM 28.4 °F 23.3 °F 24.8 °F 86% 30.09 in 10.0 mi SW 4.6 mph - N/A   Clear
10:35 PM 28.4 °F 22.2 °F 24.8 °F 86% 30.08 in 10.0 mi SW 5.8 mph - N/A   Clear
10:55 PM 30.2 °F 23.4 °F 24.8 °F 80% 30.08 in 10.0 mi SW 6.9 mph - N/A   Clear
11:15 PM 30.2 °F 22.6 °F 24.8 °F 80% 30.07 in 10.0 mi SW 8.1 mph - N/A   Clear
11:35 PM 30.2 °F 22.6 °F 26.6 °F 86% 30.06 in 10.0 mi SSW 8.1 mph - N/A   Clear
11:55 PM 32.0 °F 24.2 °F 24.8 °F 75% 30.05 in 10.0 mi SSW 9.2 mph - N/A   Clear